Voltar ao catálogo

STARLINK-3078

AtivoComunicaçõesVLEO
NORAD 49134·PAYLOAD·🇺🇸 United States

Lançado Sep 14, 2021 de Vandenberg Space Force Base

Loading…

Próximas Passagens (próximas 24 horas)

TLE

AtualizadoSource: CelesTrak SupGP

Época: Sep 14, 2026, 20:58 UTC

1 49134C 21082E   26257.87409722 -.00033857  00000+0 -28368-2 0  2578
2 49134  70.0017 177.4573 0003098 266.1811 228.5301 14.98354824    17

Acompanhe STARLINK-3078 em tempo real com AllMySat

Download on the App Store